| time (UTC) | temp F | wind direction | speed MPH | gust MPH | rain 1hr in | rain 24hr in | rain mn in | humidity % | barometer mb |
| 20260901133054 | 55 | 341 | 0.0 | 0.0 | 0.00 | 0.00 | 0.00 | 84 | 1013.6 |
| 20260901131551 | 55 | 177 | 0.0 | 0.0 | 0.00 | 0.00 | 0.00 | 84 | 1013.5 |
| 20260901130048 | 55 | 211 | 0.0 | 0.0 | 0.00 | 0.00 | 0.00 | 84 | 1013.4 |
| 20260901124547 | 55 | 250 | 0.0 | 0.0 | 0.00 | 0.00 | 0.00 | 84 | 1013.4 |
| 20260901123045 | 55 | 157 | 0.0 | 0.0 | 0.00 | 0.00 | 0.00 | 84 | 1013.3 |
| 20260901121545 | 55 | 210 | 0.0 | 0.0 | 0.00 | 0.00 | 0.00 | 83 | 1013.3 |
| 20260901120052 | 55 | 210 | 0.0 | 0.0 | 0.00 | 0.00 | 0.00 | 82 | 1013.1 |
| 20260901114541 | 55 | 210 | 0.0 | 0.0 | 0.00 | 0.00 | 0.00 | 81 | 1012.9 |
| 20260901113046 | 56 | 17 | 0.0 | 0.0 | 0.00 | 0.00 | 0.00 | 82 | 1013.1 |
| 20260901111546 | 56 | 25 | 0.0 | 0.0 | 0.00 | 0.00 | 0.00 | 83 | 1013.1 |
| 20260901110045 | 56 | 222 | 0.0 | 0.0 | 0.00 | 0.00 | 0.00 | 83 | 1012.9 |
| 20260901104537 | 56 | 234 | 0.0 | 0.0 | 0.00 | 0.00 | 0.00 | 84 | 1012.9 |
| 20260901103038 | 56 | 202 | 0.0 | 0.0 | 0.00 | 0.00 | 0.00 | 85 | 1012.8 |
| 20260901101537 | 56 | 201 | 0.0 | 0.0 | 0.00 | 0.00 | 0.00 | 85 | 1012.8 |
| 20260901100036 | 56 | 296 | 0.0 | 4.0 | 0.00 | 0.00 | 0.00 | 86 | 1012.8 |
| 20260901094539 | 56 | 71 | 0.0 | 0.0 | 0.00 | 0.00 | 0.00 | 87 | 1013.0 |
| 20260901093034 | 56 | 241 | 0.0 | 2.0 | 0.00 | 0.00 | 0.00 | 87 | 1012.9 |
| 20260901091534 | 56 | 241 | 0.0 | 5.0 | 0.00 | 0.00 | 0.00 | 87 | 1012.8 |
| 20260901090034 | 55 | 222 | 0.0 | 2.0 | 0.00 | 0.00 | 0.00 | 86 | 1012.9 |
| 20260901084533 | 56 | 234 | 0.0 | 0.0 | 0.00 | 0.00 | 0.00 | 86 | 1012.9 |
| 20260901083033 | 56 | 235 | 0.0 | 0.0 | 0.00 | 0.00 | 0.00 | 86 | 1012.9 |
| 20260901081530 | 56 | 244 | 0.0 | 6.0 | 0.00 | 0.00 | 0.00 | 86 | 1012.7 |
| 20260901080031 | 56 | 236 | 0.0 | 2.0 | 0.00 | 0.00 | 0.00 | 86 | 1012.7 |
| 20260901074531 | 56 | 221 | 0.0 | 0.0 | 0.00 | 0.00 | 0.00 | 86 | 1012.6 |
| 20260901073027 | 56 | 261 | 0.0 | 0.0 | 0.00 | 0.00 | 0.00 | 86 | 1012.7 |
| 20260901071525 | 56 | 298 | 0.0 | 0.0 | 0.00 | 0.00 | 0.00 | 86 | 1012.8 |
| 20260901070019 | 55 | 243 | 0.0 | 0.0 | 0.00 | 0.00 | 0.00 | 86 | 1012.8 |
| 20260901064512 | 55 | 243 | 0.0 | 0.0 | 0.00 | 0.00 | 0.00 | 86 | 1012.6 |
| 20260901063008 | 55 | 205 | 0.0 | 0.0 | 0.00 | 0.00 | 0.00 | 86 | 1012.8 |
| 20260901061507 | 54 | 40 | 0.0 | 0.0 | 0.00 | 0.00 | 0.00 | 85 | 1012.7 |
| 20260901060006 | 54 | 40 | 0.0 | 0.0 | 0.00 | 0.00 | 0.00 | 84 | 1012.7 |
| 20260901054511 | 55 | 40 | 0.0 | 0.0 | 0.00 | 0.00 | 0.00 | 84 | 1012.6 |
| 20260901053005 | 55 | 40 | 0.0 | 0.0 | 0.00 | 0.00 | 0.00 | 84 | 1012.6 |
| 20260901051504 | 56 | 215 | 0.0 | 0.0 | 0.00 | 0.00 | 0.00 | 84 | 1012.3 |
| 20260901050004 | 56 | 215 | 0.0 | 0.0 | 0.00 | 0.00 | 0.00 | 84 | 1012.6 |
| 20260901044505 | 56 | 215 | 0.0 | 0.0 | 0.00 | 0.00 | 0.00 | 84 | 1012.5 |
| 20260901043005 | 56 | 109 | 0.0 | 0.0 | 0.00 | 0.00 | 0.00 | 84 | 1012.2 |
| 20260901041503 | 56 | 233 | 0.0 | 0.0 | 0.00 | 0.00 | 0.00 | 83 | 1012.2 |
| 20260901040002 | 56 | 259 | 0.0 | 3.0 | 0.00 | 0.00 | 0.00 | 83 | 1012.1 |
| 20260901034501 | 56 | 227 | 0.0 | 2.0 | 0.00 | 0.00 | 0.00 | 82 | 1012.0 |
| 20260901033003 | 57 | 232 | 0.0 | 5.0 | 0.00 | 0.00 | 0.00 | 82 | 1011.6 |
| 20260901031501 | 57 | 264 | 0.0 | 5.0 | 0.00 | 0.00 | 0.00 | 80 | 1011.2 |
| 20260901030100 | 57 | 232 | 0.0 | 4.0 | 0.00 | 0.00 | 0.00 | 79 | 1010.9 |
| 20260901024600 | 58 | 238 | 0.0 | 5.0 | 0.00 | 0.00 | 0.00 | 77 | 1010.7 |
| 20260901023107 | 59 | 256 | 0.0 | 3.0 | 0.00 | 0.00 | 0.00 | 75 | 1010.8 |
| 20260901021559 | 59 | 243 | 0.0 | 4.0 | 0.00 | 0.00 | 0.00 | 73 | 1010.7 |
| 20260901020100 | 60 | 236 | 0.0 | 4.0 | 0.00 | 0.00 | 0.00 | 71 | 1010.7 |
| 20260901014600 | 62 | 242 | 0.0 | 8.0 | 0.00 | 0.00 | 0.00 | 68 | 1010.7 |
| 20260901013058 | 63 | 222 | 0.0 | 0.0 | 0.00 | 0.00 | 0.00 | 66 | 1010.5 |
| 20260901011601 | 64 | 228 | 0.0 | 0.0 | 0.00 | 0.00 | 0.00 | 65 | 1010.6 |
| 20260901010056 | 65 | 268 | 0.0 | 4.0 | 0.00 | 0.00 | 0.00 | 64 | 1010.6 |
| 20260901004600 | 66 | 355 | 0.0 | 3.0 | 0.00 | 0.00 | 0.00 | 62 | 1010.6 |
| 20260901003056 | 66 | 217 | 0.0 | 5.0 | 0.00 | 0.00 | 0.00 | 61 | 1010.5 |
| 20260901001556 | 68 | 292 | 0.0 | 6.0 | 0.00 | 0.00 | 0.00 | 59 | 1010.6 |
| 20260901000053 | 68 | 212 | 1.0 | 7.0 | 0.00 | 0.00 | 0.00 | 57 | 1010.6 |
| 20260831234553 | 69 | 232 | 0.0 | 3.0 | 0.00 | 0.00 | 0.00 | 57 | 1010.6 |
| 20260831233055 | 69 | 209 | 0.0 | 4.0 | 0.00 | 0.00 | 0.00 | 56 | 1010.6 |
| 20260831231555 | 69 | 267 | 0.0 | 5.0 | 0.00 | 0.00 | 0.00 | 56 | 1010.9 |
| 20260831230055 | 70 | 199 | 0.0 | 3.0 | 0.00 | 0.00 | 0.00 | 54 | 1010.9 |
| 20260831224551 | 70 | 102 | 0.0 | 8.0 | 0.00 | 0.00 | 0.00 | 52 | 1011.0 |
| 20260831223052 | 72 | 104 | 1.0 | 8.0 | 0.00 | 0.00 | 0.00 | 51 | 1011.0 |
| 20260831221558 | 73 | 236 | 1.0 | 8.0 | 0.00 | 0.00 | 0.00 | 48 | 1011.1 |
| 20260831220101 | 74 | 202 | 0.0 | 6.0 | 0.00 | 0.00 | 0.00 | 48 | 1011.2 |
| 20260831214552 | 74 | 202 | 1.0 | 7.0 | 0.00 | 0.00 | 0.00 | 47 | 1011.0 |
| 20260831213049 | 75 | 206 | 0.0 | 9.0 | 0.00 | 0.00 | 0.00 | 46 | 1011.1 |
| 20260831211600 | 75 | 183 | 2.0 | 7.0 | 0.00 | 0.00 | 0.00 | 44 | 1011.2 |
| 20260831210048 | 76 | 242 | 2.0 | 6.0 | 0.00 | 0.00 | 0.00 | 45 | 1011.1 |
| 20260831204553 | 75 | 272 | 2.0 | 9.0 | 0.00 | 0.00 | 0.00 | 46 | 1011.0 |
| 20260831203047 | 75 | 225 | 2.0 | 7.0 | 0.00 | 0.00 | 0.00 | 46 | 1011.1 |
| 20260831201546 | 76 | 244 | 1.0 | 7.0 | 0.00 | 0.00 | 0.00 | 46 | 1011.2 |
| 20260831200052 | 76 | 225 | 0.0 | 5.0 | 0.00 | 0.00 | 0.00 | 46 | 1011.3 |
| 20260831194540 | 75 | 244 | 0.0 | 3.0 | 0.00 | 0.00 | 0.00 | 48 | 1011.5 |
| 20260831193042 | 73 | 197 | 0.0 | 4.0 | 0.00 | 0.00 | 0.00 | 51 | 1011.8 |
| 20260831191536 | 73 | 22 | 0.0 | 5.0 | 0.00 | 0.00 | 0.00 | 52 | 1012.1 |
| 20260831190030 | 71 | 227 | 0.0 | 5.0 | 0.00 | 0.00 | 0.00 | 54 | 1012.2 |
| 20260831184527 | 69 | 68 | 0.0 | 4.0 | 0.00 | 0.00 | 0.00 | 58 | 1012.3 |
| 20260831183022 | 69 | 163 | 0.0 | 2.0 | 0.00 | 0.00 | 0.00 | 59 | 1012.5 |
| 20260831181522 | 68 | 344 | 0.0 | 0.0 | 0.00 | 0.00 | 0.00 | 61 | 1012.6 |
| 20260831180024 | 66 | 96 | 0.0 | 3.0 | 0.00 | 0.00 | 0.00 | 63 | 1012.6 |
| 20260831174520 | 65 | 248 | 0.0 | 4.0 | 0.00 | 0.00 | 0.00 | 65 | 1012.5 |
| 20260831173007 | 64 | 29 | 0.0 | 5.0 | 0.00 | 0.00 | 0.00 | 67 | 1012.5 |
| 20260831171502 | 63 | 250 | 0.0 | 2.0 | 0.00 | 0.00 | 0.00 | 68 | 1012.6 |
| 20260831164603 | 61 | 25 | 0.0 | 3.0 | 0.00 | 0.00 | 0.00 | 73 | 1012.4 |
| 20260831163051 | 60 | 215 | 0.0 | 2.0 | 0.00 | 0.00 | 0.00 | 77 | 1012.4 |
| 20260831161546 | 58 | 121 | 0.0 | 2.0 | 0.00 | 0.00 | 0.00 | 81 | 1012.5 |
| 20260831160046 | 55 | 103 | 0.0 | 1.0 | 0.00 | 0.00 | 0.00 | 87 | 1012.4 |
| 20260831154537 | 54 | 119 | 0.0 | 0.0 | 0.00 | 0.00 | 0.00 | 88 | 1012.4 |
| 20260831153033 | 53 | 106 | 0.0 | 0.0 | 0.00 | 0.00 | 0.00 | 88 | 1012.4 |
| 20260831151531 | 52 | 107 | 0.0 | 0.0 | 0.00 | 0.00 | 0.00 | 89 | 1012.4 |
| 20260831150028 | 51 | 107 | 0.0 | 0.0 | 0.00 | 0.00 | 0.00 | 89 | 1012.3 |
| 20260831144525 | 51 | 107 | 0.0 | 0.0 | 0.00 | 0.00 | 0.00 | 90 | 1012.0 |
| 20260831143023 | 50 | 107 | 0.0 | 0.0 | 0.00 | 0.00 | 0.00 | 90 | 1011.9 |
| 20260831141519 | 50 | 288 | 0.0 | 0.0 | 0.00 | 0.00 | 0.00 | 89 | 1011.7 |
| 20260831140016 | 49 | 288 | 0.0 | 0.0 | 0.00 | 0.00 | 0.00 | 89 | 1011.4 |
| 20260831134513 | 49 | 288 | 0.0 | 0.0 | 0.00 | 0.00 | 0.00 | 89 | 1011.1 |